Location: Jolimetz
(50.2279°N, 3.6772°E)
Time: 12:08:43
(UTC+00:00)

Daily predictions for brighter satellites

Satellite Brightness Start Highest point End
(mag) Time Altitude Azimuth Time Altitude Azimuth Time Altitude Azimuth
Cosmos 1975 Rocket 3.1 19:10:52 10° N 19:15:13 89° ENE 19:19:32 10° S
Okean-O 3.5 19:12:30 10° SE 19:16:25 32° ENE 19:20:21 10° N
Cosmos 1953 3.6 19:14:30 10° SSW 19:18:10 45° WNW 19:21:54 10° N
Cosmos 2263 Rocket 4.3 19:15:33 10° N 19:18:13 13° NNE 19:20:52 10° NE
CZ-4B R/B 3.3 19:12:50 10° SSE 19:18:29 89° ENE 19:24:05 10° NNW
CZ-4C R/B 4.5 19:18:46 10° NE 19:21:09 18° E 19:23:31 10° SE
Cosmos 1821 Rocket 4.0 19:16:29 10° N 19:22:42 76° E 19:28:48 10° SSE
Nadezhda 3 Rocket 4.3 19:17:02 10° SSE 19:22:49 45° E 19:28:39 10° NNE
Cosmos 2218 Rocket 4.5 19:16:50 10° NNW 19:23:12 69° W 19:29:30 10° S
Genesis I 3.7 19:19:48 10° NNW 19:23:17 42° NE 19:26:46 10° ESE
SL-27 R/B 2.2 19:20:36 10° NNW 19:23:31 68° WSW 19:26:21 10° SSE
USA 186 1.7 19:21:55 10° S 19:24:56 80° WSW 19:27:57 10° NNW
BREEZE-M R/B 1.7 19:22:21 10° W 19:25:08 76° S 19:27:35 10° E
SPOT 1/Viking Rocket 3.9 19:21:53 10° S 19:27:05 70° WSW 19:32:19 10° NNW
USA 267 3.3 19:20:38 10° ENE 19:27:14 80° SE 19:33:48 10° SW
Okean O Rocket 1.6 19:26:45 10° SSE 19:31:06 79° ENE 19:35:30 10° NNW
Feng Yun 1-1 Rocket 4.4 19:26:30 10° SSE 19:32:04 84° WSW 19:37:51 10° NNW
Cosmos 1486 Rocket 4.0 19:29:11 10° NNW 19:34:26 90° ENE 19:39:38 10° SSE
Cosmos 1782 Rocket 4.4 19:30:42 10° SSW 19:35:01 57° WNW 19:39:24 10° N
CZ-4 R/B 2.7 19:32:33 10° S 19:36:14 40° W 19:39:54 10° NNW
Cosmos 1536 Rocket 3.9 19:36:58 10° N 19:41:16 48° ENE 19:45:34 10° SSE
SJ 16-02 3.8 19:39:01 10° NW 19:42:20 22° W 19:45:38 10° SSW
DELTA 2 DEB (DPAF) 4.0 19:41:31 10° NNE 19:45:47 87° ESE 19:50:01 10° SSW
Resurs 01 Rocket 1.8 19:41:28 10° S 19:45:53 75° WSW 19:50:19 10° NNW
CENTAUR R/B 4.0 19:41:39 10° NW 19:48:43 40° NNE 19:56:56 10° E
MOS 1 4.4 19:44:02 10° SSE 19:49:38 61° ENE 19:55:15 10° N
NOSS 3-1 (A) 3.1 19:46:45 10° SSW 19:51:38 60° SE 19:57:32 10° NE
ERS-1 Rocket 3.8 19:51:26 14° ESE 19:55:11 34° ENE 19:59:41 10° N
Tiangong 0.1 19:56:35 10° S 19:57:17 11° SSE 19:57:17 11° SSE
Cosmos 1934 Rocket 4.0 19:54:02 10° N 20:00:10 65° ENE 20:06:21 10° SSE
USA 229 DEB 4.1 19:55:29 10° S 20:00:47 32° ESE 20:06:31 10° NE
USA 229 4.2 19:55:36 10° S 20:00:54 31° ESE 20:06:36 10° NE
Cosmos 2151 Rocket 3.5 19:58:35 10° S 20:02:56 65° E 20:07:21 10° NNE
USA 234 3.8 19:58:35 11° SSE 20:04:44 50° SW 20:11:05 10° WNW
USA 281 3.3 19:59:20 10° SSE 20:05:56 82° WSW 20:12:33 10° NNW
ATLAS CENTAUR R/B 2.8 20:04:20 10° NNW 20:07:26 24° NE 20:09:58 13° E
Cosmos 2227 Rocket 3.0 20:03:09 10° NNW 20:08:29 40° NE 20:12:21 17° ESE
NOSS 3-1 (C) 3.8 20:07:07 10° WSW 20:12:10 61° NW 20:18:22 10° NE
Iridium 2 2.9 20:09:40 10° N 20:12:37 67° E 20:14:16 23° SSE
SL-4 R/B 1.6 20:12:19 10° WNW 20:15:58 82° NNE 20:17:57 24° E
Cosmos 1892 Rocket 4.4 20:12:14 10° N 20:16:11 33° ENE 20:18:09 22° ESE
Cosmos 371 Rocket 3.6 20:12:13 10° NNW 20:16:59 66° WSW 20:21:07 13° S
Landsat 4 3.7 20:17:01 25° SE 20:18:51 56° ENE 20:22:19 10° N
MetOp-B 4.1 20:15:38 15° SSE 20:20:12 81° ENE 20:25:35 10° NNW
Cosmos 1697 Rocket 3.7 20:18:57 20° SE 20:20:50 24° ESE 20:25:17 10° NE
Cosmos 304 Rocket 3.9 20:16:03 10° NNW 20:20:50 74° WSW 20:24:31 17° SSE
Cosmos 1777 Rocket 4.2 20:16:09 10° NNW 20:21:26 73° WSW 20:25:46 15° SSE
COSMOS 2455 2.9 20:17:57 10° NNW 20:24:01 71° NE 20:27:59 22° SE
Alouette 2 Rocket 4.5 20:16:15 10° NNW 20:24:09 90° N 20:28:14 16° SSE
Okean 2 Rocket 3.2 20:20:30 10° S 20:24:59 83° W 20:29:32 10° N
ATLAS 3B R/B 3.0 20:18:22 10° SW 20:25:33 84° NW 20:33:16 10° NE
SWARM A 4.4 20:25:48 10° N 20:29:22 66° E 20:31:02 29° SSE
SPOT 5 3.1 20:26:03 16° SSE 20:30:24 89° WSW 20:35:39 10° NNW
NOSS 8 (E) 4.3 20:27:33 10° NW 20:30:36 79° NE 20:32:00 34° SE
IRS-1A Rocket 4.4 20:28:48 17° SSE 20:33:30 88° ENE 20:39:23 10° NNW
Cosmos 1898 Rocket 4.4 20:28:44 10° N 20:33:33 35° NE 20:36:04 22° ESE
Cosmos 405 Rocket 3.4 20:33:26 31° ESE 20:33:53 32° E 20:37:14 10° NNE
Cosmos 2297 Rocket 2.2 20:31:22 10° NNW 20:37:04 85° WSW 20:40:35 24° SSE
CZ-4C R/B 3.1 20:30:16 10° NW 20:37:05 69° NE 20:42:37 23° ESE
BlueWalker 3 1.9 20:34:29 10° SW 20:38:14 59° SSE 20:40:36 21° ENE
Dummy Sat-01 4.5 20:36:50 27° S 20:38:45 76° E 20:42:27 10° N
Spot 2 Rocket 3.6 20:36:25 26° SE 20:39:08 60° ENE 20:44:06 10° N
Terra 1.8 20:40:08 28° SSE 20:42:33 68° ENE 20:47:16 10° N
Cosmos 1656 3.5 20:38:10 10° SSW 20:43:44 78° ESE 20:49:16 10° NNE
Cosmos 1455 Rocket 3.3 20:46:46 35° SE 20:48:05 47° E 20:52:18 10° NNE
Okean 1 Rocket 3.2 20:44:00 11° SSW 20:48:20 77° W 20:52:51 10° N
ATLAS 5 CENTAUR R/B 3.2 20:46:01 10° W 20:49:08 29° NNW 20:52:40 10° NNE
Iridium 4 Rocket 3.8 20:44:01 11° S 20:49:19 82° W 20:55:12 10° N
Cosmos 332 Rocket 3.8 20:44:39 10° NNW 20:49:33 85° WSW 20:51:53 31° SSE
USA 245 3.8 20:46:54 25° SSE 20:49:56 87° WSW 20:54:15 10° NNW
Cosmos 2219 3.7 20:46:30 10° NNW 20:51:59 47° NE 20:54:33 28° ESE
Okean-O 4.1 20:48:49 10° SSW 20:52:47 33° W 20:56:47 10° NNW
Helios 1B 4.5 20:53:42 10° NNE 20:58:01 64° ESE 20:59:33 37° S
Ariane Rocket 2.9 20:56:31 32° SSE 20:58:57 87° ENE 21:04:02 10° NNW
Cosmos 1437 Rocket 2.6 20:55:29 10° N 20:59:25 79° ENE 21:00:22 50° SSE
Cosmos 1763 Rocket 3.4 20:57:45 24° S 21:00:45 62° ESE 21:05:51 10° NNE
Cosmos 2263 Rocket 3.0 20:58:29 10° NNW 21:03:48 40° NE 21:06:06 28° E
Cosmos 44 3.4 21:00:10 10° SSW 21:05:34 79° SE 21:10:54 10° NE
Okean O Rocket 4.3 21:05:47 10° WSW 21:07:57 13° W 21:10:08 10° WNW
Cosmos 990 Rocket 4.1 21:04:36 10° NNW 21:09:47 72° WSW 21:11:52 36° S
USA 267 3.9 21:03:43 10° ENE 21:10:07 57° NNW 21:16:30 10° W
Cosmos 2082 4.3 21:04:54 10° NNW 21:10:19 44° NE 21:12:29 31° E
ARGOS Delta rocket 4.1 21:08:36 37° SSE 21:10:48 77° ENE 21:16:17 10° N
Cosmos 2173 Rocket 4.3 21:08:25 10° N 21:14:42 55° ENE 21:17:01 37° SE
Cosmos 1605 Rocket 4.4 21:08:36 10° NNW 21:14:56 64° W 21:19:09 22° SSW
NOSS 3-2 (A) 4.4 21:08:07 10° NW 21:15:02 57° NE 21:19:58 25° ESE
Aureole 1 Rocket 2.4 21:13:15 10° NNW 21:15:56 67° WNW 21:15:56 67° WNW
Meteor 2-3 Rocket 4.3 21:12:41 10° N 21:18:07 44° ENE 21:19:41 36° ESE
Cosmos 540 Rocket 3.3 21:18:45 40° S 21:20:28 67° ESE 21:25:34 10° NNE
Cosmos 1606 4.4 21:23:40 20° NE 21:23:40 20° NE 21:25:20 10° NNE
Cosmos 1153 Rocket 4.5 21:16:43 10° N 21:23:04 87° W 21:25:55 35° S
Cosmos 2058 2.6 21:22:03 10° N 21:26:06 89° E 21:26:27 75° SSE
MOS 1 Rocket 3.0 21:25:22 61° SSE 21:26:07 90° NE 21:30:32 10° NNW
Cosmos 1626 Rocket 3.6 21:24:22 10° N 21:28:45 61° ENE 21:29:06 58° ESE
Cosmos 372 Rocket 4.0 21:25:41 10° NNW 21:30:57 74° ENE 21:32:09 53° SE
Cosmos 468 Rocket 3.8 21:31:31 42° S 21:33:19 80° ESE 21:38:35 10° NNE
ERS-1 Rocket 4.0 21:31:22 23° SSW 21:33:53 39° W 21:38:35 10° NNW
Cosmos 1802 Rocket 4.2 21:31:01 10° N 21:37:13 59° ENE 21:38:59 44° SE
SPOT 3 Rocket 4.1 21:35:46 33° SSW 21:37:48 51° W 21:42:53 10° NNW
SL-16 R/B 4.4 21:41:08 10° ENE 21:41:08 10° ENE 21:41:22 10° ENE
CENTAUR R/B 3.2 21:32:24 10° NW 21:40:31 84° NE 21:44:48 37° SE
Landsat 5 3.5 21:38:28 10° NNE 21:42:44 78° WNW 21:43:13 67° SW
Cosmos 1869 4.1 21:43:57 39° NE 21:43:57 39° NE 21:46:41 10° NNE
Cosmos 841 Rocket 3.7 21:43:35 48° E 21:43:35 48° E 21:48:16 10° NNE
Cosmos 2016 Rocket 4.2 21:38:29 10° N 21:44:30 56° ENE 21:45:55 46° ESE
ATLAS CENTAUR R/B 1.6 21:41:46 10° NW 21:45:04 55° W 21:45:04 55° W
Cosmos 1844 Rocket 4.3 21:43:25 10° NNW 21:48:00 25° NE 21:50:31 18° ENE
Intercosmos 25 3.3 21:43:25 10° NNW 21:48:13 81° W 21:48:13 81° W
Cosmos 1544 Rocket 3.4 21:49:27 75° ENE 21:49:27 75° ENE 21:53:36 10° NNE
USA 229 DEB 3.8 21:44:58 10° SW 21:51:11 69° NW 21:58:07 10° NE
USA 229 3.8 21:45:03 10° SW 21:51:17 70° NW 21:58:13 10° NE
Cosmos 1727 Rocket 4.1 21:49:08 33° SSW 21:52:11 75° W 21:58:28 10° N
Cosmos 2100 Rocket 4.0 21:45:52 10° N 21:52:16 83° W 21:54:16 47° S
Cosmos 2227 Rocket 2.9 21:47:14 10° NW 21:52:37 44° WSW 21:54:10 36° SSW
H-2A R/B 3.4 21:54:16 34° NE 21:54:16 34° NE 21:57:07 10° N
SL-4 R/B 3.7 21:51:22 10° W 21:52:47 20° W 21:52:47 20° W
Cosmos 1980 Rocket 2.1 21:55:14 59° SE 21:55:28 59° ESE 22:01:02 10° NE
Cosmos 292 Rocket 3.8 21:51:47 10° NNW 21:56:29 63° WSW 21:56:52 61° SW
Cosmos 1937 Rocket 3.5 21:57:48 10° NNW 22:03:07 72° WSW 22:03:46 63° SSW
Cosmos 1000 Rocket 4.4 22:01:36 48° SSW 22:03:30 86° W 22:09:41 10° N
Okean 1-7 Rocket 3.5 21:59:40 10° N 22:04:09 86° NNE 22:04:09 86° NNE
Cosmos 1697 Rocket 3.0 22:00:32 21° SW 22:04:19 66° WNW 22:09:59 10° NNE
Cosmos 2123 Rocket 3.9 22:05:46 57° SSE 22:07:01 72° E 22:13:21 10° NNE
COSMOS 2455 4.2 22:04:34 10° NW 22:09:28 26° WSW 22:11:08 23° SW
Meteor 1-27 4.4 22:10:41 51° E 22:10:41 51° E 22:16:03 10° NNE
CZ-2C R/B 4.0 22:06:33 10° NNE 22:10:47 58° ENE 22:10:47 58° ENE
Cosmos 1602 Rocket 3.6 22:07:15 10° N 22:11:18 75° NNW 22:11:18 75° NNW
Cosmos 1758 Rocket 3.7 22:07:50 10° NNW 22:12:06 74° WNW 22:12:06 74° WNW
Cosmos 2228 3.3 22:14:50 64° N 22:14:50 64° N 22:18:26 10° N
Cosmos 1898 Rocket 4.2 22:10:45 10° NW 22:15:41 42° WSW 22:16:18 40° WSW
BlueWalker 3 3.3 22:12:45 10° W 22:15:07 34° WNW 22:15:07 34° WNW
ARIANE 5 R/B 2.7 22:17:17 78° N 22:17:17 78° N 22:21:31 10° NNW
ATLAS 3B R/B 4.4 22:10:34 10° W 22:17:21 37° NNW 22:24:27 10° NE
Cosmos 2297 Rocket 4.3 22:17:03 10° WNW 22:20:14 15° W 22:22:24 13° WSW
Terra 4.0 22:18:50 14° WSW 22:20:38 17° W 22:23:46 10° NW
CZ-4C R/B 3.7 22:18:49 10° NW 22:25:35 41° WSW 22:27:43 35° SSW
Cosmos 2227 4.4 22:21:19 10° NNW 22:27:01 63° ENE 22:27:45 57° E
Cosmos 2369 3.5 22:27:49 78° SSE 22:28:04 80° ESE 22:33:46 10° NNE
Cosmos 1825 Rocket 4.0 22:26:22 10° N 22:30:02 59° NNE 22:30:02 59° NNE
Lacrosse 4 Rocket 3.6 22:33:41 16° NE 22:33:41 16° NE 22:34:40 10° NE
Cosmos 1666 4.4 22:27:30 10° N 22:29:23 27° NNE 22:29:23 27° NNE
NOSS 3-2 (C) 4.1 22:24:07 10° NW 22:31:18 72° NE 22:34:32 41° ESE
SL-08 R/B 4.4 22:25:09 10° N 22:31:32 82° W 22:32:34 64° S
H-2A R/B 4.4 22:29:44 10° NE 22:30:48 14° ENE 22:30:48 14° ENE
Meteor 2-8 Rocket 4.4 22:26:34 10° NNW 22:32:43 75° W 22:33:42 62° SSW
Cosmos 1725 Rocket 4.0 22:27:57 10° NNW 22:34:05 70° W 22:35:10 58° SSW
ATLAS 5 CENTAUR R/B 4.5 22:32:09 10° NW 22:34:23 14° N 22:36:50 10° NNE
Cosmos 2233 Rocket 3.8 22:28:19 10° N 22:34:32 84° E 22:35:19 70° SSE
ALOS 2 3.4 22:35:59 43° NE 22:35:59 43° NE 22:39:36 10° N
Cosmos 2219 4.1 22:30:55 10° NW 22:36:00 35° WSW 22:36:27 35° WSW
Cosmos 2061 Rocket 4.0 22:34:32 10° NNW 22:41:01 81° W 22:42:00 65° SSW
Cosmos 1862 4.4 22:37:54 10° NNW 22:40:37 41° NNW 22:40:37 41° NNW
Cosmos 1814 Rocket 4.4 22:45:04 50° ENE 22:45:04 50° ENE 22:49:12 10° NNE
Cosmos 2263 Rocket 2.8 22:42:30 10° NW 22:47:45 42° WSW 22:47:47 42° WSW
Cosmos 2360 Rocket 3.9 22:51:06 19° E 22:51:06 19° E 22:53:46 10° NE
Cosmos 1271 Rocket 4.2 22:46:50 10° N 22:49:07 34° N 22:49:07 34° N
SL-19 R/B 4.4 22:46:13 10° NNE 22:51:47 64° E 22:51:47 64° E
USA 267 4.0 22:46:19 10° E 22:52:36 51° N 22:58:53 10° WNW
Cosmos 2082 4.5 22:49:10 10° NW 22:54:20 38° WSW 22:54:20 38° WSW
Lacrosse 5 4.1 23:05:57 15° ENE 23:05:57 15° ENE 23:06:55 10° ENE
Cosmos 2333 Rocket 3.9 23:03:47 21° E 23:03:47 21° E 23:06:44 10° NE
Cosmos 2322 Rocket 3.4 23:03:59 30° E 23:03:59 30° E 23:07:41 10° NE
Cosmos 2219 Rocket 4.3 23:05:42 13° E 23:05:42 13° E 23:07:19 10° ENE
NOSS 3-2 (A) 4.3 22:58:56 10° NW 23:06:08 54° WSW 23:07:20 50° SSW
Spot 4 4.3 23:09:20 57° WNW 23:09:20 57° WNW 23:13:27 10° NNW
Cosmos 1726 Rocket 4.4 23:10:52 48° N 23:10:52 48° N 23:14:03 10° N
Meteor 2-19 Rocket 4.5 23:16:07 63° WSW 23:16:47 68° WNW 23:22:53 10° N
Cosmos 1809 Rocket 4.4 23:21:05 66° ESE 23:21:14 67° E 23:27:24 10° NNE
SL-16 R/B 2.3 23:22:57 64° ENE 23:22:57 64° ENE 23:28:00 10° NNE
Cosmos 1844 3.7 23:17:36 10° NNW 23:23:24 80° ENE 23:23:28 80° ENE
CENTAUR R/B 4.0 23:23:32 10° NW 23:30:54 34° WSW 23:31:56 33° SW
USA 238 DEB 3.8 23:23:49 10° NW 23:31:08 88° NE 23:32:58 57° SE
USA 238 3.8 23:23:55 10° NW 23:31:14 87° NE 23:33:05 57° SE
Cosmos 1125 Rocket 3.7 23:27:12 10° NNW 23:31:49 68° NW 23:31:49 68° NW
Cosmos 1844 Rocket 2.7 23:26:55 10° NNW 23:32:08 75° WNW 23:32:08 75° WNW
Cosmos 1980 Rocket 3.7 23:36:55 20° W 23:39:50 31° NW 23:44:51 10° NNE
PSLV R/B 4.3 23:35:25 10° NNE 23:39:04 54° NNE 23:39:04 54° NNE
Meteor 2-14 Rocket 4.3 23:41:04 81° SE 23:41:16 83° E 23:47:28 10° NNE
Cosmos 1072 Rocket 4.3 23:35:42 10° N 23:42:08 86° W 23:42:32 80° SSW
Cosmos 2346 Rocket 4.4 23:42:06 71° WSW 23:42:32 74° W 23:48:49 10° N
Cosmos 2278 3.8 23:44:40 65° WNW 23:44:58 66° WNW 23:50:39 10° NNE
Timation 2 Rocket 3.9 23:41:11 10° NNW 23:47:52 88° WSW 23:48:19 79° SSE
Cosmos 1816 Rocket 4.5 23:51:35 65° ESE 23:51:48 66° E 23:57:53 10° NNE
